Regional Weather Roundup
Issued by NWS

Home | Current Version | Previous Version | Text Only | Print | Product List | Glossary On
Versions: 1 2 3 4 5 6 7 8 9 10 11 12 13 14 15 16 17 18 19 20 21 22 23 24 25 26 27 28 29 30 31 32 33 34 35 36 37 38 39 40 41 42 43 44 45 46 47 48 49 50
000
ASUS43 KLOT 302108
RWRIL

ILLINOIS REGIONAL WEATHER ROUNDUP
NATIONAL WEATHER SERVICE CHICAGO/ROMEOVILLE IL
400 PM CDT SAT MAY 30 2015

NOTE: "FAIR" INDICATES FEW OR NO CLOUDS BELOW 12,000 FEET WITH NO
SIGNIFICANT WEATHER AND/OR OBSTRUCTIONS TO VISIBILITY.

* THESE STATIONS ARE NOT UNDER NWS QUALITY CONTROL. THEY ALSO MAY NOT
  REPORT WEATHER SUCH AS PRECIPITATION OR FOG.

ILZ001-002-007-009-015-016-024-302200-
NORTHWEST ILLINOIS

CITY           SKY/WX    TMP DP  RH WIND       PRES   REMARKS
MOLINE         CLOUDY    58  52  80 NE18G25   30.04R
STERLING*      CLOUDY    55  52  88 NE13G22   30.06R
SAVANNA*       CLOUDY    56  50  80 NE14      30.08R
$$

ILZ003-004-008-010-011-017-018-302200-
NORTH CENTRAL ILLINOIS

CITY           SKY/WX    TMP DP  RH WIND       PRES   REMARKS
ROCKFORD       CLOUDY    54  48  80 NE23G29   30.11R
FREEPORT*      CLOUDY    52  48  87 NE20G30   30.12R
ROCHELLE*      CLOUDY    52  50  91 NE25G33   30.07R
DE KALB*       LGT RAIN  50  48  93 NE23G31   30.07R
PERU*          CLOUDY    56  54  94 NE25      30.02R
$$

ILZ005-006-012>014-019>023-302200-
NORTHEAST ILLINOIS

CITY           SKY/WX    TMP DP  RH WIND       PRES   REMARKS
CHICAGO-OHARE  RAIN      48  46  93 N22G31    30.06R
CHICAGO-MIDWAY LGT RAIN  51  48  89 N23G35    30.04R FOG
AURORA         LGT RAIN  53  49  86 NE22G28   30.04R FOG
LANSING*       LGT RAIN  48  46  91 N15G22    30.05R
JOLIET*        LGT RAIN  52  51  94 NE16G32   30.02S
WAUKEGAN       LGT RAIN  46  45  96 N17G32    30.07R
DUPAGE AIRPORT RAIN      51  49  92 NE18G25   30.05R FOG
KANKAKEE*      LGT RAIN  55  53  94 NE14G22   29.99R
WHEELING       LGT RAIN  48  46  93 N16G29    30.09R FOG
MORRIS*        LGT RAIN  53  51  92 NE6G21    29.99R
ROMEOVILLE*    LGT RAIN  50  48  93 NE28      30.03S
NORTHERLY ISL    N/A     48  46  93 N25         N/A
$$

LMZ740>746-302200-
SOUTHERN LAKE MICHIGAN

STATION/POSITION SKY/WX   TEMP    WIND        PRES    VSBY  WAVE
                          AIR SEA DIR/SP/G                  HT/PER
                          (F)     (DEG/KT/KT) (MB)    (MI)  (FT/S)
SOUTHERN BUOY              41 38  360/ 21/ 27 1018.0R         7/ 7
HARRISON CRIB              47     350/ 30/ 35   N/A
BURNHAM HARBOR             48     360/ 17/ 25   N/A
CALUMET HARBOR             48     340/ 20/ 26   N/A
BURNS HARBOR               47      10/ 12/ 14 1017.3S
MICHIGAN CITY              46     360/ 12/ 14   N/A
MICHIGAN CITY 6N           47 56   20/ 14/ 17   N/A           5/ 5
ST. JOSEPH                 51 57   30/ 17/ 21   N/A           4/ 3
$$

ILZ025>027-034>036-040-047-049-050-058-095>099-302200-
WEST-CENTRAL ILLINOIS

CITY           SKY/WX    TMP DP  RH WIND       PRES   REMARKS
QUINCY         CLOUDY    66  63  90 NW15      29.99R
GALESBURG*     CLOUDY    62  59  90 N18G28    30.00R
MACOMB*        CLOUDY    69  66  88 N23G29    29.99R
JACKSONVILLE*  CLOUDY    74  67  80 N7        29.94F
PITTSFIELD*    PTSUNNY   73  65  77 NW14G20   29.97S
$$

ILZ028>032-037-038-041>044-048-051>054-059>061-302200-
CENTRAL ILLINOIS

CITY           SKY/WX    TMP DP  RH WIND       PRES   REMARKS
PONTIAC        RAIN      62  61  98 N22G29    29.98R
BLOOMINGTON    LGT RAIN  67  67 100 N15       29.96S FOG
DECATUR        CLOUDY    71  68  90 NW14      29.92R
PEORIA         CLOUDY    71  65  81 N5        29.96S
LACON*         LGT RAIN  67  62  86 NE14G26   29.97R
LINCOLN*       RAIN      69  66  92 N8        29.93R
SPRINGFIELD    LGT RAIN  70  66  87 N9        29.95S
TAYLORVILLE    RAIN      68  64  88 NW12      29.93F
$$

ILZ033-039-045-046-055>057-062-063-302200-
EAST-CENTRAL ILLINOIS

CITY           SKY/WX    TMP DP  RH WIND       PRES   REMARKS
CHAMPAIGN      CLOUDY    75  69  81 SW7       29.92R
DANVILLE*      RAIN      69  65  88 S3        29.91S
RANTOUL*       CLOUDY    73  70  91 CALM      29.92S
MATTOON        PTSUNNY   75  68  78 W5        29.89F
PARIS*         PTSUNNY   77  70  78 W3        29.92S
$$

ILZ079-100>102-302200-
SOUTHWEST ILLINOIS

CITY           SKY/WX    TMP DP  RH WIND       PRES   REMARKS
BELLEVILLE     CLOUDY    69  69 100 NW10      29.90R
CAHOKIA*       CLOUDY    72  66  81 N13       29.92S
SPARTA*        DRIZZLE   69  69  98 NW6       29.91S
$$

ILZ064>066-069>071-074>076-080>082-084>086-088>090-092>094-302200-
SOUTH-CENTRAL ILLINOIS

CITY           SKY/WX    TMP DP  RH WIND       PRES   REMARKS
CARBONDALE     CLOUDY    73  68  84 S13       29.88F
CAIRO*         LGT RAIN  72  69  89 S13G20    29.88F
EFFINGHAM*     HVY RAIN  73  67  79 W10       29.90F
MARION         LGT RAIN  72  68  88 S9        29.90F
MT. VERNON     CLOUDY    70  64  83 S7        29.92F
CENTRALIA*     LGT RAIN  67  65  93 SE7       29.91R
SALEM*         PTSUNNY   75  69  81 S14       29.91R THUNDER
$$

ILZ067-068-072-073-078-083-087-091-302200-
SOUTHEAST ILLINOIS

CITY           SKY/WX    TMP DP  RH WIND       PRES   REMARKS
LAWRENCEVILLE  MOSUNNY   84  64  50 S23G32    29.89F HX  85
FLORA*         TSTM      72  67  84 S17       29.92R
FAIRFIELD*     PTSUNNY   71  68  93 SW14G23   29.91R
HARRISBURG*    LGT RAIN  73  66  79 S18       29.92F
ROBINSON*      MOSUNNY   82  66  58 SW9       29.90F HX  83
CARMI*         CLOUDY    79  66  65 S13       29.89F HX  81
$$

ABBREVIATIONS USED IN REMARKS
   TC - TEMPERATURE IN CELSIUS
  WCI - WIND CHILL INDEX
   HX - HEAT INDEX
  VSB - VISIBILITY
$$



USA.gov is the U.S. government's official web portal to all federal, state and local government web resources and services.